Location: Caltech
(34.1382°N, 118.1253°W)
Time: 03:31:21
(UTC-07:00)

Cosmos 1833 - Visible Passes

Search period start: 27 April 2015 00:00
Search period end: 07 May 2015 00:00
Orbit: 841 x 858 km, 70.9° (Epoch: 26 April)

Date Brightness Start Highest point End Pass type
(mag) Time Alt. Az. Time Alt. Az. Time Alt. Az.
27 Apr 5.4 22:53:58 10° NNW 22:57:23 36° N 22:57:23 36° N visible
28 Apr 5.2 22:41:18 10° NNW 22:45:10 42° N 22:45:10 42° N visible
29 Apr 4.9 22:28:39 10° NNW 22:32:58 48° NNE 22:32:58 48° NNE visible
30 Apr 6.9 00:14:52 10° WNW 00:14:57 10° WNW 00:14:57 10° WNW visible
30 Apr 4.6 22:15:59 10° NNW 22:20:48 55° NNE 22:20:48 55° NNE visible
01 May 6.8 00:02:11 10° WNW 00:02:47 12° WNW 00:02:47 12° WNW visible
01 May 4.4 22:03:20 10° NNW 22:08:40 59° NE 22:08:40 59° NE visible
01 May 6.7 23:49:29 10° WNW 23:50:40 13° WNW 23:50:40 13° WNW visible
02 May 4.2 21:50:40 10° NNW 21:56:17 60° ENE 21:56:35 59° E visible
02 May 6.6 23:36:47 10° WNW 23:38:35 14° W 23:38:35 14° W visible
03 May 4.3 21:38:00 10° NNW 21:43:37 59° ENE 21:44:32 52° ESE visible
03 May 6.5 23:24:05 10° WNW 23:26:32 15° W 23:26:32 15° W visible
04 May 4.3 21:25:21 10° NNW 21:30:57 59° ENE 21:32:32 44° ESE visible
04 May 6.4 23:11:24 10° WNW 23:14:32 15° W 23:14:32 15° W visible
05 May 4.3 21:12:41 10° NNW 21:18:18 58° ENE 21:20:34 35° SE visible
05 May 6.4 22:58:43 10° WNW 23:02:06 16° W 23:02:35 15° WSW visible
06 May 4.4 21:00:02 10° NNW 21:05:38 58° ENE 21:08:40 27° SE visible
06 May 6.4 22:46:01 10° WNW 22:49:26 16° W 22:50:41 15° WSW visible
